Location: Austin
(30.3000°N, 97.7500°W)
Time: 14:34:52
(UTC-05:00)

ERS-1 Rocket - Pass Details

Date: 11 June 2024
Orbit: 749 x 754 km, 98.3° (Epoch: 13 October)

Event Time Altitude Azimuth Distance (km) Brightness Sun altitude
Exits shadow 22:49:18 67° 151° (SSE) 819 2.8 -23.9°
Maximum altitude 22:49:59 84° 77° (ENE) 764 2.8 -24.0°
Drops below altitude 10° 22:55:01 10° 349° (N) 2,283 6.2 -24.7°
Sets 22:57:19 0° 349° (N) 3,210 7.2 -25.0°
